Home > Weather > Petropavl > Past weeks

Flag for Kazakhstan Weather for the Past 2 Weeks in Petropavl, Kazakhstan

Now
19 °F

Snow flurries. Partly cloudy.


Feels Like: 19 °F
Forecast: 10 / 23 °F
Wind: 1 mph from West

Location: Omsk

Current Time: Feb 12, 2016 at 6:00:56 AM

Latest Report: Feb 12, 2016 at 5:00 AM


Visibility: 5 mi

Pressure: 30.36 "Hg

Humidity: 93%

Dew point: 18 °F

Location of PetropavlLocation

Historic Weather in Petropavl — Graph

°F

Petropavl Temperature Yesterday

Maximum temperature yesterday: 21 °F (at 3:00 PM)
Minimum temperature yesterday: 5 °F (at 12:00 AM)
Average temperature yesterday: 17 °F

High & Low Weather Summary for the Past Weeks

 TemperatureHumidityPressure
High36 °F (Feb 6, 2:00 PM)100% (Feb 1, 9:00 PM)30.60 "Hg (Feb 1, 9:00 PM)
Low-11 °F (Jan 30, 8:30 AM)60% (Jan 29, 2:00 PM)29.59 "Hg (Feb 5, 4:30 AM)
Average11 °F86%30.23 "Hg
* Reported Jan 28 4:00 AM — Feb 12 4:00 AM, Petropavl, Weather by CustomWeather, © 2016

Note: Actual official high and low records may vary slightly from our data, if they occured in-between our weather recording intervals... More about our weather records

Advertising

Petropavl Weather History for the Previous 24 Hours

 ConditionsComfort  
Time TempWeatherWind HumidityBarometerVisibility
4:00 AM
Fri, Feb 12
19 °FSnow flurries. Partly cloudy.6 mph93%30.36 "Hg5 mi
3:30 AM19 °FSnow flurries. Passing clouds.6 mph93%30.36 "HgN/A
3:00 AM19 °FSnow flurries. Passing clouds.3 mph86%30.36 "HgN/A
2:30 AM19 °FSnow flurries. Passing clouds.6 mph86%30.36 "HgN/A
2:00 AM19 °FSnow flurries. Partly cloudy.3 mph86%30.36 "HgN/A
1:30 AM19 °FSnow flurries. Partly cloudy.6 mph86%30.36 "HgN/A
1:00 AM21 °FPartly cloudy.6 mph80%30.36 "HgN/A
12:30 AM21 °FPartly cloudy.6 mph80%30.36 "HgN/A
12:00 AM21 °FPartly cloudy.3 mph80%30.36 "HgN/A
11:30 PM
Thu, Feb 11
21 °FPartly cloudy.8 mph80%30.36 "HgN/A
11:00 PM21 °FPassing clouds.8 mph80%30.36 "HgN/A
10:30 PM21 °FPassing clouds.8 mph80%30.36 "HgN/A
10:00 PM21 °FPassing clouds.10 mph80%30.36 "HgN/A
9:30 PM21 °FPassing clouds.10 mph80%30.36 "HgN/A
9:00 PM21 °FPassing clouds.6 mph80%30.36 "HgN/A
8:30 PM19 °FPassing clouds.6 mph86%30.36 "HgN/A
8:00 PM19 °FPartly sunny.6 mph79%30.36 "HgN/A
7:30 PM18 °FPartly sunny.6 mph86%30.36 "HgN/A
7:00 PM19 °FPartly sunny.8 mph79%30.36 "HgN/A
6:30 PM19 °FPartly sunny.8 mph79%30.33 "HgN/A
6:00 PM18 °FPartly sunny.10 mph79%30.33 "HgN/A
5:00 PM19 °FPartly sunny.13 mph79%30.33 "HgN/A
4:30 PM19 °FPartly sunny.13 mph79%30.33 "HgN/A
4:00 PM19 °FSunny.10 mph79%30.33 "Hg10 mi
3:30 PM19 °FSunny.13 mph79%30.33 "Hg10 mi
3:00 PM21 °FSunny.13 mph74%30.33 "Hg10 mi
2:30 PM19 °FSunny.13 mph79%30.33 "Hg10 mi
2:00 PM19 °FLow level haze.13 mph79%30.33 "HgN/A
1:30 PM19 °FLow level haze.13 mph79%30.33 "HgN/A
1:00 PM18 °FLow level haze.10 mph86%30.33 "HgN/A
12:30 PM18 °FLow level haze.13 mph86%30.33 "HgN/A
12:00 PM18 °FLow level haze.13 mph86%30.33 "HgN/A
11:30 AM18 °FScattered clouds.13 mph86%30.36 "HgN/A
11:00 AM18 °FScattered clouds.13 mph86%30.36 "HgN/A
10:30 AM18 °FLight snow. Passing clouds.13 mph86%30.36 "Hg2 mi
10:00 AM18 °FLight snow. Passing clouds.13 mph86%30.36 "Hg2 mi
9:30 AM18 °FLight snow. Passing clouds.13 mph86%30.36 "Hg4 mi
8:30 AM18 °FLight snow. Passing clouds.15 mph86%30.39 "Hg5 mi
8:00 AM18 °FLight snow. Passing clouds.15 mph86%30.39 "Hg5 mi
7:30 AM18 °FLight snow. Passing clouds.15 mph86%30.39 "Hg5 mi
6:30 AM16 °FLight snow. Passing clouds.17 mph93%30.39 "Hg3 mi
Weather by CustomWeather, © 2016

See weather overviewHow to use our weather pages